• In Latvia
  • List of Countries
  • For 7 days
  • Water Temperature
  • Satellite Maps
  • Weather Map
  • Weather Widgets
  • user-avatar
    Login

    Hourly Weather Escaldes-Engordany

    Today, 21 November, Tuesday

    Time Temperature Precipitation Wind Pressure Humidity
    00:00 +4°C° 0 mm 1 mps 641 mmHg 55%
    01:00 +4°C° 0 mm 1 mps 641 mmHg 54%
    02:00 +4°C° 0 mm 1 mps 641 mmHg 54%
    03:00 +4°C° 0 mm 1 mps 641 mmHg 53%
    04:00 +4°C° 0 mm 1 mps 640 mmHg 52%
    05:00 +4°C° 0 mm 1 mps 640 mmHg 51%
    06:00 +4°C° 0 mm 1 mps 640 mmHg 49%
    07:00 +6°C° 0 mm 1 mps 641 mmHg 46%
    08:00 +8°C° 0 mm 1 mps 642 mmHg 42%
    09:00 +8°C° 0 mm 0 mps 642 mmHg 39%
    10:00 +11°C° 0 mm 1 mps 643 mmHg 35%
    11:00 +12°C° 0 mm 1 mps 643 mmHg 32%
    12:00 +14°C° 0 mm 1 mps 643 mmHg 29%
    13:00 +13°C° 0 mm 1 mps 643 mmHg 33%
    14:00 +13°C° 0 mm 1 mps 642 mmHg 38%
    15:00 +12°C° 0 mm 1 mps 642 mmHg 42%
    16:00 +10°C° 0 mm 1 mps 641 mmHg 47%
    17:00 +8°C° 0 mm 1 mps 640 mmHg 51%
    18:00 +5°C° 0 mm 1 mps 639 mmHg 56%
    19:00 +5°C° 0 mm 1 mps 639 mmHg 55%
    20:00 +5°C° 0 mm 1 mps 639 mmHg 54%
    21:00 +5°C° 0 mm 1 mps 639 mmHg 54%
    22:00 +5°C° 0 mm 1 mps 639 mmHg 53%
    23:00 +5°C° 0 mm 1 mps 639 mmHg 53%

    Tomorrow, 22 November, Wednesday

    Time Temperature Precipitation Wind Pressure Humidity
    00:00 +5°C° 0 mm 1 mps 639 mmHg 52%
    01:00 +4°C° 0 mm 1 mps 638 mmHg 51%
    02:00 +4°C° 0 mm 1 mps 638 mmHg 50%
    03:00 +4°C° 0 mm 1 mps 637 mmHg 49%
    04:00 +4°C° 0 mm 1 mps 637 mmHg 46%
    05:00 +4°C° 0 mm 1 mps 637 mmHg 43%
    06:00 +4°C° 0 mm 1 mps 637 mmHg 40%
    07:00 +5°C° 0 mm 1 mps 637 mmHg 39%
    08:00 +7°C° 0 mm 1 mps 638 mmHg 38%
    09:00 +7°C° 0 mm 2 mps 639 mmHg 37%
    10:00 +9°C° 0 mm 2 mps 639 mmHg 34%
    11:00 +12°C° 0 mm 2 mps 639 mmHg 32%
    12:00 +13°C° 0 mm 2 mps 639 mmHg 29%
    13:00 +13°C° 0 mm 2 mps 639 mmHg 32%
    14:00 +12°C° 0 mm 2 mps 638 mmHg 36%
    15:00 +10°C° 0 mm 2 mps 638 mmHg 39%
    16:00 +8°C° 0 mm 2 mps 637 mmHg 43%
    17:00 +6°C° 0 mm 2 mps 636 mmHg 47%
    18:00 +4°C° 0 mm 1 mps 636 mmHg 51%
    19:00 +4°C° 0 mm 1 mps 636 mmHg 48%
    20:00 +3°C° 0 mm 2 mps 636 mmHg 45%
    21:00 +3°C° 0 mm 2 mps 636 mmHg 42%
    22:00 +3°C° 0 mm 2 mps 636 mmHg 41%
    23:00 +3°C° 0 mm 2 mps 636 mmHg 41%

    Day after tomorrow, 23 November, Thursday

    Time Temperature Precipitation Wind Pressure Humidity
    00:00 +3°C° 0 mm 2 mps 636 mmHg 40%
    01:00 +4°C° 0 mm 1 mps 636 mmHg 42%
    02:00 +4°C° 0 mm 1 mps 636 mmHg 43%
    03:00 +4°C° 0 mm 1 mps 636 mmHg 44%
    04:00 +4°C° 0 mm 1 mps 636 mmHg 45%
    05:00 +4°C° 0 mm 1 mps 637 mmHg 47%
    06:00 +5°C° 0 mm 1 mps 637 mmHg 48%
    07:00 +6°C° 0 mm 1 mps 638 mmHg 49%
    08:00 +8°C° 0 mm 1 mps 639 mmHg 49%
    09:00 +9°C° 0 mm 1 mps 639 mmHg 50%
    10:00 +9°C° 0 mm 2 mps 640 mmHg 49%
    11:00 +10°C° 0 mm 2 mps 640 mmHg 48%
    12:00 +13°C° 0 mm 2 mps 641 mmHg 47%
    13:00 +12°C° 0 mm 2 mps 640 mmHg 50%
    14:00 +12°C° 0 mm 2 mps 640 mmHg 53%
    15:00 +10°C° 0 mm 2 mps 640 mmHg 56%
    16:00 +8°C° 0 mm 2 mps 640 mmHg 61%
    17:00 +7°C° 0 mm 2 mps 639 mmHg 66%
    18:00 +6°C° 0 mm 1 mps 639 mmHg 71%
    19:00 +6°C° 0 mm 1 mps 639 mmHg 71%
    20:00 +5°C° 0 mm 1 mps 639 mmHg 71%
    21:00 +5°C° 0 mm 1 mps 639 mmHg 71%
    22:00 +5°C° 0 mm 1 mps 639 mmHg 71%
    23:00 +5°C° 0 mm 1 mps 639 mmHg 70%

    24 November, Friday

    Time Temperature Precipitation Wind Pressure Humidity
    00:00 +5°C° 0 mm 1 mps 639 mmHg 70%
    01:00 +5°C° 0 mm 1 mps 639 mmHg 69%
    02:00 +5°C° 0 mm 1 mps 639 mmHg 68%
    03:00 +5°C° 0 mm 1 mps 639 mmHg 67%
    04:00 +4°C° 0 mm 2 mps 639 mmHg 66%
    05:00 +4°C° 0 mm 2 mps 639 mmHg 65%
    06:00 +4°C° 0 mm 2 mps 639 mmHg 64%
    07:00 +5°C° 0 mm 2 mps 639 mmHg 60%
    08:00 +7°C° 0 mm 2 mps 640 mmHg 55%
    09:00 +9°C° 0 mm 2 mps 641 mmHg 50%
    10:00 +10°C° 0 mm 2 mps 641 mmHg 46%
    11:00 +11°C° 0 mm 3 mps 641 mmHg 42%
    12:00 +12°C° 0 mm 3 mps 642 mmHg 37%
    13:00 +13°C° 0 mm 2 mps 641 mmHg 40%
    14:00 +12°C° 0 mm 2 mps 641 mmHg 42%
    15:00 +12°C° 0 mm 2 mps 640 mmHg 44%
    16:00 +9°C° 0 mm 2 mps 640 mmHg 48%
    17:00 +8°C° 0 mm 2 mps 639 mmHg 51%
    18:00 +6°C° 0 mm 2 mps 639 mmHg 55%
    19:00 +6°C° 0 mm 2 mps 639 mmHg 56%
    20:00 +5°C° 0 mm 2 mps 639 mmHg 58%
    21:00 +5°C° 0 mm 2 mps 639 mmHg 59%
    22:00 +5°C° 0 mm 2 mps 639 mmHg 58%
    23:00 +5°C° 0 mm 2 mps 639 mmHg 57%

    25 November, Saturday

    Time Temperature Precipitation Wind Pressure Humidity
    00:00 +5°C° 0 mm 2 mps 638 mmHg 56%
    01:00 +5°C° 0 mm 2 mps 638 mmHg 55%
    02:00 +5°C° 0 mm 2 mps 638 mmHg 54%
    03:00 +5°C° 0 mm 2 mps 638 mmHg 53%
    04:00 +5°C° 0 mm 2 mps 638 mmHg 52%
    05:00 +5°C° 0 mm 2 mps 638 mmHg 51%
    06:00 +5°C° 0 mm 2 mps 638 mmHg 51%
    07:00 +6°C° 0 mm 2 mps 639 mmHg 50%
    08:00 +7°C° 0 mm 2 mps 640 mmHg 48%
    09:00 +8°C° 0 mm 2 mps 640 mmHg 47%
    10:00 +9°C° 0 mm 2 mps 641 mmHg 48%
    11:00 +10°C° 0 mm 2 mps 641 mmHg 48%
    12:00 +10°C° 0 mm 2 mps 642 mmHg 48%
    13:00 +10°C° 0.1 mm 2 mps 642 mmHg 53%
    14:00 +9°C° 0.1 mm 2 mps 642 mmHg 57%
    15:00 +8°C° 0.1 mm 2 mps 642 mmHg 62%
    16:00 +8°C° 0.1 mm 1 mps 642 mmHg 68%
    17:00 +7°C° 0.1 mm 1 mps 642 mmHg 73%
    18:00 +6°C° 0.1 mm 1 mps 642 mmHg 79%
    19:00 +6°C° 0 mm 1 mps 642 mmHg 80%
    20:00 +5°C° 0 mm 1 mps 643 mmHg 81%
    21:00 +5°C° 0 mm 1 mps 643 mmHg 82%
    22:00 +5°C° 0.2 mm 1 mps 643 mmHg 83%
    23:00 +5°C° 0.2 mm 1 mps 643 mmHg 84%

    26 November, Sunday

    Time Temperature Precipitation Wind Pressure Humidity
    00:00 +4°C° 0.2 mm 1 mps 644 mmHg 84%
    01:00 +3°C° 0.2 mm 0 mps 644 mmHg 85%
    02:00 +3°C° 0.2 mm 0 mps 643 mmHg 86%
    03:00 +3°C° 0.2 mm 0 mps 643 mmHg 87%
    04:00 +3°C° 0.2 mm 0 mps 644 mmHg 88%
    05:00 +4°C° 0.2 mm 1 mps 644 mmHg 89%
    06:00 +4°C° 0.2 mm 1 mps 644 mmHg 90%
    07:00 +4°C° 0 mm 1 mps 644 mmHg 88%
    08:00 +5°C° 0 mm 1 mps 645 mmHg 87%
    09:00 +4°C° 0 mm 0 mps 645 mmHg 85%
    10:00 +6°C° 0 mm 1 mps 645 mmHg 81%
    11:00 +7°C° 0 mm 1 mps 645 mmHg 78%
    12:00 +7°C° 0 mm 1 mps 645 mmHg 74%
    13:00 +7°C° 0 mm 1 mps 645 mmHg 75%
    14:00 +7°C° 0 mm 1 mps 645 mmHg 75%
    15:00 +6°C° 0 mm 1 mps 644 mmHg 76%
    16:00 +6°C° 0 mm 1 mps 644 mmHg 80%
    17:00 +5°C° 0 mm 1 mps 644 mmHg 83%
    18:00 +4°C° 0 mm 1 mps 644 mmHg 87%
    19:00 +4°C° 0.1 mm 1 mps 644 mmHg 88%
    20:00 +4°C° 0.1 mm 1 mps 644 mmHg 88%
    21:00 +4°C° 0.1 mm 1 mps 644 mmHg 89%
    22:00 +4°C° 0.1 mm 1 mps 643 mmHg 89%
    23:00 +4°C° 0.1 mm 1 mps 643 mmHg 89%
    Show more